| time (UTC) | temp F | wind direction | speed knots | gust knots | rain 1hr in | rain 24hr in | rain mn in | humidity % | barometer mb |
| 20260505225003 | 54 | 122 | 3.5 | 7.8 | 0.00 | 0.00 | 0.00 | 79 | 1028.1 |
| 20260505224003 | 54 | 121 | 3.5 | 8.7 | 0.00 | 0.00 | 0.00 | 79 | 1028.1 |
| 20260505223024 | 54 | 127 | 3.5 | 9.6 | 0.00 | 0.00 | 0.00 | 79 | 1028.0 |
| 20260505222003 | 54 | 123 | 3.5 | 8.7 | 0.00 | 0.00 | 0.00 | 79 | 1027.9 |
| 20260505221024 | 55 | 134 | 2.6 | 7.0 | 0.00 | 0.00 | 0.00 | 78 | 1027.9 |
| 20260505220003 | 55 | 137 | 4.3 | 8.7 | 0.00 | 0.00 | 0.00 | 78 | 1027.9 |
| 20260505215003 | 55 | 142 | 3.5 | 11.3 | 0.00 | 0.00 | 0.00 | 78 | 1027.8 |
| 20260505214003 | 55 | 135 | 4.3 | 9.6 | 0.00 | 0.00 | 0.00 | 77 | 1027.7 |
| 20260505213003 | 55 | 128 | 4.3 | 7.8 | 0.00 | 0.00 | 0.00 | 77 | 1027.5 |
| 20260505212003 | 55 | 141 | 4.3 | 12.2 | 0.00 | 0.00 | 0.00 | 77 | 1027.5 |
| 20260505211003 | 56 | 142 | 4.3 | 9.6 | 0.00 | 0.00 | 0.00 | 76 | 1027.5 |
| 20260505210003 | 56 | 142 | 4.3 | 9.6 | 0.00 | 0.00 | 0.00 | 76 | 1027.4 |
| 20260505205003 | 56 | 144 | 5.2 | 10.4 | 0.00 | 0.00 | 0.00 | 76 | 1027.3 |
| 20260505204003 | 56 | 146 | 5.2 | 10.4 | 0.00 | 0.00 | 0.00 | 75 | 1027.3 |
| 20260505203003 | 56 | 147 | 5.2 | 11.3 | 0.00 | 0.00 | 0.00 | 75 | 1027.1 |
| 20260505202003 | 56 | 147 | 6.1 | 11.3 | 0.00 | 0.00 | 0.00 | 74 | 1027.1 |
| 20260505201003 | 56 | 147 | 6.1 | 10.4 | 0.00 | 0.00 | 0.00 | 74 | 1027.0 |
| 20260505200003 | 56 | 147 | 5.2 | 10.4 | 0.00 | 0.00 | 0.00 | 74 | 1027.1 |
| 20260505195003 | 56 | 147 | 5.2 | 10.4 | 0.00 | 0.00 | 0.00 | 73 | 1027.0 |
| 20260505194025 | 57 | 149 | 5.2 | 9.6 | 0.00 | 0.00 | 0.00 | 73 | 1027.0 |
| 20260505193025 | 57 | 147 | 4.3 | 8.7 | 0.00 | 0.00 | 0.00 | 73 | 1027.1 |
| 20260505192004 | 57 | 148 | 4.3 | 7.0 | 0.00 | 0.00 | 0.00 | 72 | 1027.1 |
| 20260505191004 | 57 | 144 | 3.5 | 7.0 | 0.00 | 0.00 | 0.00 | 72 | 1027.0 |
| 20260505190004 | 57 | 140 | 2.6 | 7.0 | 0.00 | 0.00 | 0.00 | 72 | 1026.9 |
| 20260505185004 | 57 | 148 | 3.5 | 7.0 | 0.00 | 0.00 | 0.00 | 71 | 1026.9 |
| 20260505184004 | 58 | 144 | 2.6 | 6.1 | 0.00 | 0.00 | 0.00 | 70 | 1027.0 |
| 20260505183004 | 58 | 143 | 3.5 | 7.0 | 0.00 | 0.00 | 0.00 | 70 | 1027.1 |
| 20260505182004 | 58 | 144 | 3.5 | 7.8 | 0.00 | 0.00 | 0.00 | 69 | 1027.1 |
| 20260505181004 | 58 | 139 | 4.3 | 8.7 | 0.00 | 0.00 | 0.00 | 69 | 1027.1 |
| 20260505180025 | 59 | 136 | 4.3 | 7.8 | 0.00 | 0.00 | 0.00 | 68 | 1027.0 |
| 20260505175004 | 59 | 141 | 4.3 | 9.6 | 0.00 | 0.00 | 0.00 | 68 | 1026.9 |
| 20260505174004 | 59 | 136 | 4.3 | 12.2 | 0.00 | 0.00 | 0.00 | 68 | 1026.9 |
| 20260505173004 | 59 | 137 | 4.3 | 11.3 | 0.00 | 0.00 | 0.00 | 68 | 1026.9 |
| 20260505172004 | 59 | 141 | 4.3 | 9.6 | 0.00 | 0.00 | 0.00 | 68 | 1026.8 |
| 20260505171004 | 59 | 144 | 4.3 | 8.7 | 0.00 | 0.00 | 0.00 | 68 | 1026.8 |
| 20260505170025 | 59 | 145 | 5.2 | 9.6 | 0.00 | 0.00 | 0.00 | 67 | 1026.8 |
| 20260505165004 | 60 | 146 | 6.1 | 12.2 | 0.00 | 0.00 | 0.00 | 66 | 1026.7 |
| 20260505164004 | 59 | 141 | 4.3 | 10.4 | 0.00 | 0.00 | 0.00 | 67 | 1026.6 |
| 20260505163025 | 59 | 148 | 3.5 | 7.8 | 0.00 | 0.00 | 0.00 | 67 | 1026.7 |
| 20260505162004 | 60 | 138 | 2.6 | 7.0 | 0.00 | 0.00 | 0.00 | 66 | 1026.6 |
| 20260505161025 | 60 | 144 | 4.3 | 7.8 | 0.00 | 0.00 | 0.00 | 66 | 1026.4 |
| 20260505153004 | 58 | 151 | 1.7 | 4.3 | 0.00 | 0.00 | 0.00 | 71 | 1026.5 |
| 20260505152004 | 58 | 153 | 0.9 | 3.5 | 0.00 | 0.00 | 0.00 | 72 | 1026.5 |
| 20260505151025 | 58 | 153 | 0.9 | 1.7 | 0.00 | 0.00 | 0.00 | 72 | 1026.4 |
| 20260505125004 | 60 | 149 | 0.0 | 1.7 | 0.00 | 0.00 | 0.00 | 73 | 1026.4 |
| 20260505124004 | 61 | 166 | 0.9 | 3.5 | 0.00 | 0.00 | 0.00 | 73 | 1026.4 |
| 20260505123025 | 61 | 168 | 0.0 | 1.7 | 0.00 | 0.00 | 0.00 | 74 | 1026.4 |
| 20260505122004 | 60 | 151 | 0.0 | 2.6 | 0.00 | 0.00 | 0.00 | 75 | 1026.3 |
| 20260505121004 | 61 | 170 | 0.0 | 1.7 | 0.00 | 0.00 | 0.00 | 75 | 1026.3 |
| 20260505120005 | 61 | 180 | 0.0 | 1.7 | 0.00 | 0.00 | 0.00 | 75 | 1026.2 |
| 20260505115004 | 61 | 155 | 0.0 | 0.9 | 0.00 | 0.00 | 0.00 | 76 | 1026.2 |
| 20260505114004 | 62 | 165 | 0.0 | 0.9 | 0.00 | 0.00 | 0.00 | 76 | 1026.2 |
| 20260505113004 | 62 | 175 | 0.0 | 1.7 | 0.00 | 0.00 | 0.00 | 75 | 1026.2 |
| 20260505112004 | 62 | 176 | 0.0 | 1.7 | 0.00 | 0.00 | 0.00 | 75 | 1026.2 |
| 20260505111004 | 62 | 191 | 0.0 | 1.7 | 0.00 | 0.00 | 0.00 | 75 | 1026.1 |
| 20260505102004 | 64 | 198 | 0.9 | 2.6 | 0.00 | 0.00 | 0.00 | 71 | 1025.5 |
| 20260505101004 | 65 | 200 | 0.9 | 3.5 | 0.00 | 0.00 | 0.00 | 70 | 1025.4 |
| 20260505100004 | 65 | 212 | 0.9 | 3.5 | 0.00 | 0.00 | 0.00 | 69 | 1025.4 |
| 20260505095025 | 66 | 211 | 0.9 | 3.5 | 0.00 | 0.00 | 0.00 | 67 | 1025.3 |
| 20260505094004 | 66 | 209 | 0.9 | 5.2 | 0.00 | 0.00 | 0.00 | 66 | 1025.2 |
| 20260505093004 | 67 | 222 | 1.7 | 5.2 | 0.00 | 0.00 | 0.00 | 65 | 1025.1 |
| 20260505092004 | 68 | 221 | 1.7 | 6.1 | 0.00 | 0.00 | 0.00 | 64 | 1025.1 |
| 20260505091004 | 69 | 217 | 1.7 | 5.2 | 0.00 | 0.00 | 0.00 | 62 | 1025.0 |
| 20260505090004 | 70 | 210 | 1.7 | 7.0 | 0.00 | 0.00 | 0.00 | 61 | 1025.0 |
| 20260505085004 | 70 | 209 | 2.6 | 7.0 | 0.00 | 0.00 | 0.00 | 61 | 1024.9 |
| 20260505084004 | 71 | 210 | 2.6 | 8.7 | 0.00 | 0.00 | 0.00 | 59 | 1024.8 |
| 20260505083004 | 71 | 224 | 2.6 | 10.4 | 0.00 | 0.00 | 0.00 | 58 | 1024.8 |
| 20260505082004 | 72 | 215 | 2.6 | 7.8 | 0.00 | 0.00 | 0.00 | 56 | 1024.9 |
| 20260505081004 | 72 | 222 | 3.5 | 10.4 | 0.00 | 0.00 | 0.00 | 54 | 1024.8 |
| 20260505080004 | 74 | 230 | 2.6 | 6.1 | 0.00 | 0.00 | 0.00 | 54 | 1024.8 |
| 20260505075004 | 74 | 223 | 2.6 | 9.6 | 0.00 | 0.00 | 0.00 | 55 | 1024.7 |
| 20260505074025 | 74 | 248 | 1.7 | 5.2 | 0.00 | 0.00 | 0.00 | 53 | 1024.6 |
| 20260505073025 | 74 | 243 | 2.6 | 7.0 | 0.00 | 0.00 | 0.00 | 54 | 1024.7 |
| 20260505072004 | 74 | 233 | 2.6 | 6.1 | 0.00 | 0.00 | 0.00 | 54 | 1024.7 |
| 20260505071004 | 75 | 236 | 1.7 | 6.1 | 0.00 | 0.00 | 0.00 | 52 | 1024.6 |
| 20260505070025 | 74 | 240 | 2.6 | 7.0 | 0.00 | 0.00 | 0.00 | 52 | 1024.7 |
| 20260505065004 | 74 | 250 | 2.6 | 7.0 | 0.00 | 0.00 | 0.00 | 51 | 1024.6 |
| 20260505064004 | 75 | 255 | 2.6 | 5.2 | 0.00 | 0.00 | 0.00 | 51 | 1024.7 |
| 20260505063003 | 76 | 209 | 1.7 | 5.2 | 0.00 | 0.00 | 0.00 | 49 | 1024.7 |
| 20260505062025 | 76 | 223 | 1.7 | 4.3 | 0.00 | 0.00 | 0.00 | 48 | 1024.7 |
| 20260505061004 | 76 | 192 | 1.7 | 5.2 | 0.00 | 0.00 | 0.00 | 48 | 1024.7 |
| 20260505060025 | 76 | 184 | 1.7 | 5.2 | 0.00 | 0.00 | 0.00 | 43 | 1024.8 |
| 20260505055003 | 76 | 229 | 1.7 | 3.5 | 0.00 | 0.00 | 0.00 | 43 | 1024.9 |
| 20260505054004 | 74 | 139 | 1.7 | 4.3 | 0.00 | 0.00 | 0.00 | 45 | 1024.9 |
| 20260505053004 | 75 | 139 | 0.9 | 4.3 | 0.00 | 0.00 | 0.00 | 43 | 1024.9 |
| 20260505052025 | 74 | 153 | 1.7 | 6.1 | 0.00 | 0.00 | 0.00 | 46 | 1025.0 |
| 20260505051003 | 74 | 174 | 0.9 | 6.1 | 0.00 | 0.00 | 0.00 | 46 | 1025.1 |
| 20260505041004 | 70 | 145 | 2.6 | 6.1 | 0.00 | 0.00 | 0.00 | 52 | 1026.1 |
| 20260505040004 | 70 | 138 | 2.6 | 5.2 | 0.00 | 0.00 | 0.00 | 53 | 1026.2 |
| 20260505035004 | 71 | 61 | 3.5 | 6.1 | 0.00 | 0.00 | 0.00 | 51 | 1026.3 |
| 20260505034024 | 71 | 53 | 3.5 | 7.8 | 0.00 | 0.00 | 0.00 | 53 | 1026.4 |
| 20260505033003 | 70 | 70 | 3.5 | 7.8 | 0.00 | 0.00 | 0.00 | 53 | 1026.6 |
| 20260505032003 | 69 | 66 | 4.3 | 7.0 | 0.00 | 0.00 | 0.00 | 55 | 1026.6 |
| 20260505031003 | 69 | 94 | 3.5 | 7.8 | 0.00 | 0.00 | 0.00 | 56 | 1026.7 |
| 20260505030004 | 68 | 70 | 2.6 | 6.1 | 0.00 | 0.00 | 0.00 | 57 | 1026.8 |
| 20260505025004 | 68 | 72 | 3.5 | 7.0 | 0.00 | 0.00 | 0.00 | 58 | 1026.8 |
| 20260505024003 | 68 | 66 | 3.5 | 8.7 | 0.00 | 0.00 | 0.00 | 58 | 1026.9 |
| 20260505023003 | 67 | 88 | 3.5 | 6.1 | 0.00 | 0.00 | 0.00 | 60 | 1026.9 |
| 20260505022003 | 66 | 78 | 3.5 | 6.1 | 0.00 | 0.00 | 0.00 | 61 | 1026.9 |
| 20260505021003 | 65 | 89 | 3.5 | 7.0 | 0.00 | 0.00 | 0.00 | 63 | 1027.0 |
| 20260505020024 | 64 | 79 | 3.5 | 7.8 | 0.00 | 0.00 | 0.00 | 64 | 1027.0 |
| 20260505015024 | 64 | 63 | 4.3 | 8.7 | 0.00 | 0.00 | 0.00 | 65 | 1027.1 |
| 20260505014003 | 63 | 77 | 5.2 | 10.4 | 0.00 | 0.00 | 0.00 | 66 | 1027.1 |
| 20260505013003 | 62 | 81 | 4.3 | 10.4 | 0.00 | 0.00 | 0.00 | 68 | 1027.1 |
| 20260505012024 | 61 | 97 | 3.5 | 7.8 | 0.00 | 0.00 | 0.00 | 70 | 1027.1 |
| 20260505011024 | 60 | 91 | 3.5 | 7.8 | 0.00 | 0.00 | 0.00 | 71 | 1027.1 |
| 20260505010004 | 59 | 84 | 4.3 | 7.8 | 0.00 | 0.00 | 0.00 | 72 | 1027.0 |
| 20260505005004 | 58 | 86 | 4.3 | 10.4 | 0.00 | 0.00 | 0.00 | 74 | 1027.1 |
| 20260505004003 | 58 | 89 | 4.3 | 7.8 | 0.00 | 0.00 | 0.00 | 74 | 1027.1 |
| 20260505003003 | 57 | 95 | 3.5 | 7.8 | 0.00 | 0.00 | 0.00 | 75 | 1027.1 |
| 20260505002003 | 57 | 95 | 2.6 | 7.0 | 0.00 | 0.00 | 0.00 | 76 | 1027.0 |
| 20260505001003 | 56 | 104 | 3.5 | 7.8 | 0.00 | 0.00 | 0.00 | 77 | 1026.9 |
| 20260505000003 | 55 | 106 | 2.6 | 9.6 | 0.00 | 0.00 | 0.00 | 79 | 1026.7 |
| 20260504235024 | 55 | 103 | 1.7 | 4.3 | 0.00 | 0.00 | 0.00 | 80 | 1026.7 |
| 20260504234003 | 54 | 125 | 2.6 | 5.2 | 0.00 | 0.00 | 0.00 | 81 | 1026.5 |
| 20260504233003 | 54 | 112 | 2.6 | 6.1 | 0.00 | 0.00 | 0.00 | 81 | 1026.4 |
| 20260504232003 | 53 | 137 | 1.7 | 4.3 | 0.00 | 0.00 | 0.00 | 82 | 1026.2 |
| 20260504231003 | 53 | 142 | 1.7 | 3.5 | 0.00 | 0.00 | 0.00 | 83 | 1026.2 |
| 20260504230003 | 52 | 131 | 1.7 | 4.3 | 0.00 | 0.00 | 0.00 | 84 | 1026.0 |